Indianapolis, IN

3:03 PM EDT on October 18, 2019 (GMT -0400)
Indianapolis International

Weather History for KIND - June, 2019

Change the Weather History Date:

Thursday, June 6, 2019

  Actual Average Record
Temperature  
Mean Temperature 75 °F 69 °F  
Max Temperature 84 °F 79 °F 96 °F (1933)
Min Temperature 65 °F 60 °F 39 °F (1894)
Degree Days  
Heating Degree Days 0 1  
Month to date heating degree days 0 8  
Since 1 June heating degree days 0 8  
Since 1 July heating degree days 5376 5370  
Cooling Degree Days 10 5  
Month to date cooling degree days 34 30  
Year to date cooling degree days 145 114  
Since 1 June cooling degree days 34 30  
Growing Degree Days 24 (Base 50)    
Moisture  
Dew Point 65 °F    
Average Humidity 76    
Maximum Humidity 100    
Minimum Humidity 51    
Precipitation  
Precipitation 0.00 in 0.15 in 2.62 in (1947)
Month to date precipitation 0.57 0.87  
Year to date precipitation 22.21 18.27  
Snow  
Snow 0.00 in 0.00 in T in (1953)
Month to date snowfall 0.0 0.0  
Since 1 June snowfall 0.0 0.0  
Since 1 July snowfall 19.4 25.9  
Snow Depth 0.00 in    
Sea Level Pressure  
Sea Level Pressure 29.82 in    
Wind  
Wind Speed 6 mph (East)    
Max Wind Speed 17 mph    
Max Gust Speed 22 mph    
Visibility 9 miles    
Events Fog    
T = Trace of Precipitation, MM = Missing Value Source: NWS Daily Summary

Daily Weather History Graph

Daily Weather History Graph

Search for Another Location

Airport or City:

Astronomy

Jun. 06, 2019 Rise Set
Actual Time 6:17 AM EDT 9:10 PM EDT
Civil Twilight 5:45 AM EDT 9:42 PM EDT
Nautical Twilight 5:04 AM EDT 10:23 PM EDT
Astronomical Twilight 4:18 AM EDT 11:10 PM EDT
Moon 9:25 AM EDT (6/6) No Moon Set
Length of Visible Light 15h 57m
Length of Day
14h 52m
Waxing Crescent, 13% of the Moon is Illuminated
Jun 6
Waxing Crescent
Jun 10
First Quarter
Jun 17
Full
Jun 25
Last Quarter
Jul 2
New

Hourly Weather History & Observations

Time (EDT) Temp. Heat Index Dew Point Humidity Pressure Visibility Wind Dir Wind Speed Gust Speed Precip Events Conditions
12:54 AM 68.0 °F - 66.0 °F 93% 29.79 in 10.0 mi WNW 3.5 mph - N/A   Mostly Cloudy
1:54 AM 68.0 °F - 66.0 °F 93% 29.79 in 10.0 mi ENE 3.5 mph - N/A   Mostly Cloudy
2:54 AM 68.0 °F - 66.0 °F 93% 29.79 in 10.0 mi ESE 3.5 mph - N/A   Mostly Cloudy
3:54 AM 66.9 °F - 66.0 °F 97% 29.79 in 7.0 mi SSE 3.5 mph - N/A   Mostly Cloudy
4:54 AM 66.0 °F - 64.9 °F 96% 29.79 in 10.0 mi Calm Calm - N/A   Mostly Cloudy
5:54 AM 66.0 °F - 64.9 °F 96% 29.80 in 7.0 mi East 4.6 mph - N/A Fog Patches of Fog
6:37 AM 64.9 °F - 64.9 °F 100% 29.83 in 0.8 mi ESE 3.5 mph - N/A   Mostly Cloudy
6:48 AM 64.4 °F - 64.4 °F 100% 29.83 in 3.0 mi ESE 3.5 mph - N/A   Mostly Cloudy
6:54 AM 64.9 °F - 64.9 °F 100% 29.82 in 3.0 mi East 3.5 mph - N/A   Mostly Cloudy
7:54 AM 69.1 °F - 66.0 °F 90% 29.83 in 5.0 mi Calm Calm - N/A   Scattered Clouds
8:25 AM 70.0 °F - 66.0 °F 87% 29.85 in 6.0 mi Calm Calm - N/A   Scattered Clouds
8:54 AM 72.0 °F - 66.9 °F 84% 29.84 in 6.0 mi East 5.8 mph - N/A   Haze
9:54 AM 73.9 °F - 66.0 °F 76% 29.85 in 8.0 mi East 9.2 mph - N/A   Scattered Clouds
10:54 AM 75.9 °F - 66.9 °F 74% 29.86 in 10.0 mi SE 6.9 mph - N/A   Scattered Clouds
11:54 AM 78.1 °F - 66.0 °F 66% 29.86 in 10.0 mi East 5.8 mph - N/A   Scattered Clouds
12:54 PM 80.1 °F 82.3 °F 66.9 °F 64% 29.85 in 10.0 mi Variable 3.5 mph - N/A   Mostly Cloudy
1:54 PM 81.0 °F 83.3 °F 66.9 °F 62% 29.85 in 10.0 mi SE 6.9 mph - N/A   Mostly Cloudy
2:54 PM 82.9 °F 85.8 °F 68.0 °F 60% 29.83 in 10.0 mi SE 6.9 mph - N/A   Mostly Cloudy
3:54 PM 82.0 °F 83.8 °F 64.9 °F 56% 29.83 in 10.0 mi Variable 3.5 mph - N/A   Mostly Cloudy
4:54 PM 84.0 °F 85.8 °F 64.9 °F 53% 29.81 in 10.0 mi NNE 5.8 mph - N/A   Mostly Cloudy
5:54 PM 82.0 °F 83.4 °F 64.0 °F 54% 29.81 in 10.0 mi ESE 6.9 mph - N/A   Mostly Cloudy
6:54 PM 82.9 °F 84.0 °F 63.0 °F 51% 29.80 in 10.0 mi ESE 8.1 mph - N/A   Mostly Cloudy
7:54 PM 81.0 °F 82.5 °F 64.0 °F 56% 29.81 in 10.0 mi East 6.9 mph - N/A   Overcast
8:54 PM 81.0 °F 82.5 °F 64.0 °F 56% 29.81 in 10.0 mi East 6.9 mph - N/A   Overcast
9:54 PM 79.0 °F - 63.0 °F 58% 29.81 in 10.0 mi ENE 15.0 mph - N/A   Overcast
10:54 PM 77.0 °F - 63.0 °F 62% 29.84 in 10.0 mi ENE 12.7 mph - N/A   Overcast
11:54 PM 75.0 °F - 64.0 °F 69% 29.85 in 10.0 mi ENE 12.7 mph 19.6 mph N/A   Mostly Cloudy